DW7787 Weather Reports


Display with metric or nautical units.
time (UTC)temp
F
wind
direction
speed
MPH
gust
MPH
rain 1hr
in
rain 24hr
in
rain mn
in
humidity
%
barometer
mb
20260503200037 68 223 2.0 9.0 0.00 0.00 0.00 35 1017.9
20260503195230 68 253 3.0 9.0 0.00 0.00 0.00 31 1017.9
20260503194730 68 53 2.0 8.0 0.00 0.00 0.00 32 1017.9
20260503194231 68 234 2.0 6.0 0.00 0.00 0.00 32 1018.0
20260503193730 68 300 2.0 5.0 0.00 0.00 0.00 33 1018.0
20260503193230 68 58 2.0 7.0 0.00 0.00 0.00 32 1018.1
20260503192730 68 239 2.0 7.0 0.00 0.00 0.00 32 1018.1
20260503192231 67 43 3.0 8.0 0.00 0.00 0.00 33 1018.3
20260503191729 67 284 3.0 10.0 0.00 0.00 0.00 31 1018.4
20260503191231 68 12 2.0 10.0 0.00 0.00 0.00 31 1018.4
20260503190729 67 77 2.0 12.0 0.00 0.00 0.00 31 1018.6
20260503190233 68 327 3.0 12.0 0.00 0.00 0.00 31 1018.6
20260503185732 67 266 3.0 11.0 0.00 0.00 0.00 31 1018.7
20260503185233 67 48 3.0 11.0 0.00 0.00 0.00 33 1018.8
20260503185041 67 313 3.0 10.0 0.00 0.00 0.00 32 1018.9
20260503184231 67 325 2.0 8.0 0.00 0.00 0.00 33 1018.9
20260503183725 67 300 3.0 10.0 0.00 0.00 0.00 32 1018.8
20260503183219 66 336 2.0 10.0 0.00 0.00 0.00 32 1019.0
20260503182714 65 257 1.0 7.0 0.00 0.00 0.00 33 1019.1
20260503182208 66 98 2.0 8.0 0.00 0.00 0.00 34 1019.1
20260503181704 66 177 3.0 12.0 0.00 0.00 0.00 35 1019.2
20260503181508 65 5 2.0 12.0 0.00 0.00 0.00 34 1019.2
20260503180705 65 205 2.0 8.0 0.00 0.00 0.00 34 1019.4
20260503180205 66 300 2.0 8.0 0.00 0.00 0.00 33 1019.6
20260503175706 64 340 2.0 8.0 0.00 0.00 0.00 38 1019.6
20260503175204 63 75 3.0 12.0 0.00 0.00 0.00 37 1019.6
20260503174705 64 238 3.0 12.0 0.00 0.00 0.00 34 1019.8
20260503174206 64 342 3.0 9.0 0.00 0.00 0.00 35 1019.9
20260503173704 64 212 3.0 9.0 0.00 0.00 0.00 35 1019.9
20260503173505 63 226 3.0 9.0 0.00 0.00 0.00 35 1019.9
20260503172704 63 59 3.0 9.0 0.00 0.00 0.00 35 1020.0
20260503172204 64 338 3.0 9.0 0.00 0.00 0.00 35 1020.1
20260503171704 64 184 2.0 9.0 0.00 0.00 0.00 35 1020.2
20260503171202 64 15 2.0 7.0 0.00 0.00 0.00 35 1020.3
20260503170700 63 314 2.0 9.0 0.00 0.00 0.00 34 1020.4
20260503170201 62 337 3.0 9.0 0.00 0.00 0.00 36 1020.4
20260503160145 59 332 2.0 8.0 0.00 0.00 0.00 40 1020.8
20260503150727 57 76 2.0 7.0 0.00 0.00 0.00 43 1021.2
20260503140130 54 91 3.0 15.0 0.00 0.00 0.00 45 1021.0
20260503131131 51 337 3.0 10.0 0.00 0.00 0.00 56 1020.9
20260503130627 51 0 3.0 10.0 0.00 0.00 0.00 57 1020.8
20260503130126 50 78 2.0 10.0 0.00 0.00 0.00 60 1020.8
20260503110532 41 329 0.0 1.0 0.00 0.00 0.00 81 1020.0
20260503090502 42 331 0.0 3.0 0.00 0.01 0.00 78 1018.1
20260503081436 43 200 0.0 2.0 0.00 0.01 0.00 79 1017.8
20260503080936 43 200 1.0 2.0 0.00 0.01 0.00 78 1017.8
20260503080431 43 200 0.0 2.0 0.00 0.01 0.00 77 1017.8
20260503080233 44 325 0.0 1.0 0.00 0.01 0.00 75 1017.6
20260503072932 44 306 0.0 1.0 0.00 0.01 0.00 72 1017.5
20260503072903 44 298 0.0 1.0 0.00 0.01 0.00 73 1017.3
20260503072523 44 298 0.0 1.0 0.00 0.01 0.00 72 1017.5
20260503071430 43 298 0.0 1.0 0.00 0.01 0.00 73 1017.3
20260503070936 43 298 0.0 1.0 0.00 0.01 0.00 73 1017.2
20260503070431 43 294 0.0 1.0 0.00 0.01 0.00 74 1017.2
20260503054913 43 282 0.0 0.0 0.00 0.01 0.00 78 1017.0
20260503054412 43 282 0.0 1.0 0.00 0.01 0.00 78 1017.0
20260503053916 43 282 0.0 1.0 0.00 0.01 0.00 78 1017.0
20260503053411 44 282 0.0 0.0 0.00 0.01 0.00 78 1016.9
20260503053203 44 282 0.0 0.0 0.00 0.01 0.00 78 1016.9
20260503052703 44 282 0.0 1.0 0.00 0.01 0.00 78 1016.9
20260503051908 44 282 0.0 1.0 0.00 0.01 0.00 79 1017.0
20260503051407 44 282 0.0 1.0 0.00 0.01 0.00 79 1016.9
20260503050907 44 282 0.0 1.0 0.00 0.01 0.00 78 1016.9
20260503050407 45 282 0.0 1.0 0.00 0.01 0.00 78 1016.8
20260503045904 45 282 0.0 0.0 0.00 0.01 0.00 78 1016.8
20260503045401 45 282 0.0 0.0 0.00 0.01 0.00 77 1016.8
20260503044902 45 282 0.0 0.0 0.00 0.01 0.00 77 1016.7
20260503044403 45 282 0.0 0.0 0.00 0.01 0.00 76 1016.7
20260503043902 46 282 0.0 0.0 0.00 0.01 0.00 76 1016.8
20260503043405 46 282 0.0 0.0 0.00 0.01 0.00 75 1016.7
20260503042902 46 282 0.0 1.0 0.00 0.01 0.00 75 1016.6
20260503042402 46 282 0.0 1.0 0.00 0.01 0.00 76 1016.6
20260503041903 46 282 0.0 1.0 0.00 0.01 0.00 75 1016.6
20260503041402 46 282 0.0 1.0 0.00 0.01 0.00 75 1016.5
20260503040903 46 282 0.0 1.0 0.00 0.01 0.00 74 1016.5
20260503040401 47 282 0.0 1.0 0.00 0.01 0.00 74 1016.4
20260503035903 47 282 0.0 0.0 0.00 0.01 0.01 74 1016.5
20260503035357 47 282 0.0 0.0 0.00 0.01 0.01 73 1016.5
20260503034854 47 282 0.0 0.0 0.00 0.01 0.01 73 1016.4
20260503034355 47 282 0.0 0.0 0.00 0.01 0.01 73 1016.3
20260503034147 48 282 0.0 0.0 0.00 0.01 0.01 73 1016.2
20260503033351 48 282 0.0 0.0 0.00 0.01 0.01 73 1016.3
20260503032851 48 282 0.0 0.0 0.00 0.01 0.01 73 1016.3
20260503032348 48 282 0.0 0.0 0.00 0.01 0.01 73 1016.2
20260503031847 48 282 0.0 0.0 0.00 0.01 0.01 72 1016.3
20260503031342 48 282 0.0 0.0 0.00 0.01 0.01 71 1016.3
20260503030842 49 282 0.0 0.0 0.00 0.01 0.01 70 1016.2
20260503030341 49 282 0.0 0.0 0.00 0.01 0.01 70 1016.2
20260503025841 49 282 0.0 1.0 0.00 0.01 0.01 70 1016.2
20260503025338 49 282 0.0 2.0 0.00 0.01 0.01 70 1016.1
20260503024838 49 282 0.0 2.0 0.00 0.01 0.01 70 1016.1
20260503024339 50 343 0.0 1.0 0.00 0.01 0.01 69 1016.1
20260503023837 50 343 0.0 1.0 0.00 0.01 0.01 68 1016.0
20260503023334 50 343 0.0 4.0 0.00 0.01 0.01 68 1016.0
20260503022834 50 343 0.0 4.0 0.00 0.01 0.01 67 1016.0
20260503022335 51 28 0.0 2.0 0.00 0.01 0.01 67 1015.9
20260503021837 51 42 0.0 3.0 0.00 0.01 0.01 66 1015.8
20260503021337 51 42 0.0 3.0 0.00 0.01 0.01 66 1015.8
20260503020832 51 240 0.0 2.0 0.00 0.01 0.01 65 1015.7
20260503020327 51 239 1.0 3.0 0.00 0.01 0.01 64 1015.7
20260503015823 52 5 0.0 3.0 0.00 0.01 0.01 64 1015.6
20260503015315 53 67 0.0 1.0 0.00 0.01 0.01 62 1015.4
20260503015113 53 67 0.0 1.0 0.00 0.01 0.01 62 1015.3
20260503014604 53 67 0.0 1.0 0.00 0.01 0.01 60 1015.2
20260503013813 53 67 0.0 1.0 0.00 0.01 0.01 59 1015.2
20260503013313 54 67 0.0 1.0 0.00 0.01 0.01 58 1015.2
20260503013111 54 67 0.0 1.0 0.00 0.01 0.01 57 1015.0
20260503012313 54 67 0.0 1.0 0.00 0.01 0.01 57 1015.1
20260503012115 54 102 0.0 1.0 0.00 0.01 0.01 56 1015.0
20260503011312 55 102 0.0 1.0 0.00 0.01 0.01 55 1014.9
20260503011116 55 102 0.0 1.0 0.00 0.01 0.01 55 1014.9
20260503010310 55 102 0.0 0.0 0.00 0.01 0.01 56 1014.8
20260503005810 55 102 0.0 0.0 0.00 0.01 0.01 55 1014.7
20260503005308 55 102 0.0 1.0 0.00 0.01 0.01 55 1014.7
20260503004808 56 102 0.0 1.0 0.00 0.01 0.01 56 1014.6
20260503004310 56 102 0.0 1.0 0.00 0.01 0.01 55 1014.5
20260503003809 56 102 0.0 1.0 0.00 0.01 0.01 55 1014.5
20260503003306 56 102 0.0 1.0 0.00 0.01 0.01 54 1014.3
20260503002809 56 102 0.0 1.0 0.00 0.01 0.01 54 1014.3
20260503002559 56 102 0.0 1.0 0.00 0.01 0.01 53 1014.2
20260503001805 56 102 0.0 1.0 0.00 0.01 0.01 54 1013.9
20260503001304 57 102 0.0 1.0 0.00 0.01 0.01 54 1013.7
20260503001115 57 102 0.0 1.0 0.00 0.01 0.01 54 1013.6
20260503000304 57 102 0.0 1.0 0.00 0.01 0.01 53 1013.4
20260502235804 57 102 1.0 2.0 0.00 0.01 0.01 52 1013.5
20260502235305 57 102 1.0 2.0 0.00 0.01 0.01 52 1013.4
20260502235104 58 100 1.0 2.0 0.00 0.01 0.01 53 1013.3
20260502234302 59 43 0.0 1.0 0.00 0.01 0.01 52 1013.1
20260502233804 59 43 0.0 1.0 0.00 0.01 0.01 50 1013.1
20260502233302 59 43 0.0 1.0 0.00 0.01 0.01 49 1013.0
20260502232801 60 44 0.0 1.0 0.00 0.01 0.01 49 1012.8
20260502232304 60 44 0.0 1.0 0.00 0.01 0.01 50 1012.8
20260502231802 60 44 0.0 1.0 0.00 0.01 0.01 48 1012.7
20260502231301 60 44 0.0 1.0 0.00 0.01 0.01 47 1012.6
20260502230801 60 43 0.0 1.0 0.00 0.01 0.01 47 1012.6
20260502230611 61 43 0.0 3.0 0.00 0.01 0.01 45 1012.6
20260502225800 61 43 1.0 3.0 0.00 0.01 0.01 44 1012.6
20260502225304 61 36 1.0 3.0 0.00 0.01 0.01 44 1012.5
20260502224804 61 69 1.0 3.0 0.00 0.01 0.01 44 1012.6
20260502224302 61 130 1.0 2.0 0.00 0.01 0.01 45 1012.5
20260502223802 61 130 1.0 2.0 0.00 0.01 0.01 45 1012.5
20260502223303 61 144 1.0 2.0 0.00 0.01 0.01 45 1012.5
20260502222801 61 181 1.0 2.0 0.00 0.01 0.01 43 1012.6
20260502222301 61 190 1.0 3.0 0.00 0.01 0.01 44 1012.6
20260502221802 61 182 1.0 3.0 0.00 0.01 0.01 43 1012.5
20260502221257 61 137 1.0 3.0 0.00 0.01 0.01 43 1012.5
20260502220753 61 153 1.0 3.0 0.00 0.01 0.01 44 1012.4
20260502220603 61 150 1.0 3.0 0.00 0.01 0.01 45 1012.4
20260502215749 61 145 1.0 3.0 0.00 0.01 0.01 42 1012.4
20260502215249 61 128 1.0 3.0 0.00 0.01 0.01 42 1012.3
20260502214748 62 93 1.0 3.0 0.00 0.01 0.01 42 1012.2
20260502214245 62 146 2.0 3.0 0.00 0.01 0.01 44 1012.3
20260502213748 62 121 1.0 3.0 0.00 0.01 0.01 43 1012.3
20260502213244 62 24 1.0 2.0 0.00 0.01 0.01 39 1012.2
20260502213130 61 31 1.0 4.0 0.00 0.01 0.01 41 1012.3
20260502212246 62 163 1.0 4.0 0.00 0.01 0.01 42 1012.3
20260502211740 62 171 1.0 3.0 0.00 0.01 0.01 41 1012.4
20260502211239 61 130 1.0 3.0 0.00 0.01 0.01 41 1012.4
20260502210737 61 88 1.0 2.0 0.00 0.01 0.01 39 1012.4
20260502210241 61 232 2.0 3.0 0.00 0.01 0.01 39 1012.4
20260502210049 60 108 2.0 3.0 0.00 0.01 0.01 39 1012.5
20260502205235 61 134 1.0 3.0 0.00 0.01 0.01 38 1012.4
20260502204735 62 43 2.0 4.0 0.00 0.01 0.01 39 1012.4
20260502204236 61 96 2.0 4.0 0.00 0.01 0.01 41 1012.3
20260502203734 60 211 2.0 4.0 0.00 0.01 0.01 41 1012.4
20260502203230 60 84 1.0 4.0 0.00 0.01 0.01 39 1012.4
20260502202724 60 36 1.0 3.0 0.00 0.01 0.01 40 1012.4
20260502202218 60 172 1.0 3.0 0.00 0.01 0.01 40 1012.5
20260502201712 60 46 1.0 3.0 0.00 0.01 0.01 39 1012.6
20260502201209 60 97 1.0 3.0 0.00 0.01 0.01 39 1012.7
20260502200709 61 113 1.0 3.0 0.00 0.01 0.01 39 1012.6
20260502200209 60 340 2.0 4.0 0.00 0.01 0.01 40 1012.9